Regional Weather Roundup
Issued by NWS

Current Version | Previous Version | Text Only | Print | Product List | Glossary On
Versions: 1 2 3 4 5 6 7 8 9 10 11 12 13 14 15 16 17 18 19 20 21 22 23 24 25 26 27 28 29 30 31 32 33 34 35 36 37 38 39 40 41 42 43 44 45 46 47 48 49 50
607
ASUS44 KLUB 181910
RWRLUB
WEST TEXAS WEATHER ROUNDUP
NATIONAL WEATHER SERVICE LUBBOCK TX
100 PM CST TUE DEC 18 2018

NOTE: "FAIR" INDICATES FEW OR NO CLOUDS BELOW 12,000 FEET WITH NO
SIGNIFICANT WEATHER AND/OR OBSTRUCTIONS TO VISIBILITY.

TXZ004-006>008-010-012-014-016-OKZ002-182000-
TEXAS PANHANDLE/OKLAHOMA PANHANDLE

CITY           SKY/WX    TMP DP  RH WIND       PRES   REMARKS
AMARILLO       CLOUDY    54  33  45 SW12      29.92F
BORGER         CLOUDY    61  33  35 S9        29.91F
CANADIAN       CLOUDY    58  32  36 S13G18    29.92F
DALHART        MOSUNNY   58  21  24 CALM      29.92F
DUMAS          SUNNY     59  29  32 SW8       29.91
GUYMON         SUNNY     56  25  30 W8        29.89F
HEREFORD       MOSUNNY   56  35  44 CALM      29.93
PAMPA          SUNNY     60  31  33 SW13      29.93
PERRYTON       SUNNY     60  32  34 S17       29.89
$$

TXZ026-029-035-045-048-182000-
SOUTHERN PANHANDLE/SOUTH PLAINS/ROLLING PLAINS

CITY           SKY/WX    TMP DP  RH WIND       PRES   REMARKS
CHILDRESS      CLOUDY    56  36  47 S12       29.96F
SEMINOLE       CLOUDY    51  39  63 S8        29.97
LUBBOCK        PTSUNNY   52  34  50 SE3       29.93F
PLAINVIEW      PTSUNNY   49  32  51 S6        29.93F
SNYDER         MOSUNNY   50  43  77 S13       29.97
$$

TXZ052-054-060>062-072-078-127-140-154-169-182000-
PERMIAN BASIN/CONCHO VALLEY/BIG COUNTRY/EDWARDS PLATEAU

CITY           SKY/WX    TMP DP  RH WIND       PRES   REMARKS
ABILENE        MOSUNNY   60  48  64 SW12      29.99F
BIG SPRING     CLOUDY    53  40  61 S15       29.98
BRADY          SUNNY     61  43  51 S12       29.99
BROWNWOOD      SUNNY     57  46  67 SE7       30.01F
JUNCTION       SUNNY     62  47  57 S10       29.99F
MIDLAND        LGT RAIN  52  40  63 SW8       29.97F
ODESSA         LGT RAIN  49  42  77 S3        29.96F
SAN ANGELO     PTSUNNY   62  47  57 SW12      29.98F
SONORA         PTSUNNY   57  48  72 S10G16    30.04F
SWEETWATER     CLOUDY    55  46  72 S13       29.99
WINK           PTSUNNY   60  39  45 W22G28    29.93F
$$

TXZ055-058-074-075-080-082-182000-
FAR WEST/SOUTHWEST MOUNTAINS/TRANS PECOS

CITY           SKY/WX    TMP DP  RH WIND       PRES   REMARKS
ALPINE         SUNNY     58  31  34 W21G31    30.06F
DRYDEN           N/A     57  36  45 CALM      29.97F
EL PASO        PTSUNNY   53  40  61 W13       30.02F
FORT STOCKTON  PTSUNNY   59  43  55 VRB3      29.97F
PECOS          MOSUNNY   62  38  40 W21G30    29.95F
PRESIDIO       FAIR      61  37  41 S3        30.05F
$$

TXZ014-016-019-021>030-083-182000
TEXAS TECH WEST TEXAS MESONET/TEXAS PANHANDLE/NORTHERN SOUTH PLAINS

CITY           SKY/WX    TMP DP  RH WIND       PRES   REMARKS
ABERNATHY 5ENE   N/A     51  33  52 SE1       29.94F
AMARILLO 9NNE    N/A     56  32  41 S10       29.92F
AMARILLO 7SSE    N/A     55  33  42 SW6       29.94F
AMHERST 1NE      N/A     53  35  50 E5        29.93F
BOOTLEG 11WNW    N/A     56  33  42 SW3       29.94F
CANADIAN 6E      N/A     57  31  37 S10       29.90F
CAPROCK CYN SP   N/A     52  35  51 SE8       29.95F
CHILDRESS 2NNE   N/A     57  36  45 S10       29.95F
CLARENDON 2WSW   N/A     52  32  46 S9        29.94F
CLAUDE 12SW      N/A     52  32  47 S3        29.93F
DIMMITT 2NE      N/A     53  35  50 S7        29.92F
FLOYDADA 2NNE    N/A     53  32  45 S8        29.94F
FRIONA 2NE       N/A     56  34  42 W2        29.93F
GOODLETT 3W      N/A     59  37  43 S13       29.95F
HART 3N          N/A     54  35  47 S7        29.92F
HEREFORD 2NW     N/A     55  31  40 SW2       29.92F
MCLEAN 1E        N/A     52  31  44 S7        29.92F
MEMPHIS 1NE      N/A     53  35  50 S7        29.95F
MULESHOE 2SSW    N/A     58  34  40 S2        29.92F
OLTON 6S         N/A     51  34  52 S6        29.93F
PALO DURO SP     N/A     56  33  42 S2        29.94F
PAMPA 2E         N/A     55  32  41 S10       29.92F
PLAINVIEW 1S     N/A     51  34  52 S6        29.94F
SILVERTON 7ESE   N/A     52  33  48 SE8       29.93F
TULIA 2ENE       N/A     55  32  42 S7        29.92F
TURKEY 2WSW      N/A     53  34  48 SE7       29.94F
UMBARGER 3NNE    N/A     53  34  48 SW3       29.94F
$$

TXZ033>036-039>041-045>048-182000
TEXAS TECH WEST TEXAS MESONET/SOUTH PLAINS

CITY           SKY/WX    TMP DP  RH WIND       PRES   REMARKS
AIKEN 3WSW       N/A     50  33  51 S9        29.95F
ANDREWS 2NE      N/A     47  43  83 SE6       29.96F
ANTON 6SSW       N/A     52  37  57 E2        29.93F
BROWNFIELD 2S    N/A     51  37  59 S6        29.94F
DENVR CTY 7WNW   N/A     58  38  47 SW3       29.91F
GAIL 2ESE        N/A     52  35  52 S10       29.94F
LAMESA 2SE       N/A     51  38  60 SW9       29.95F
LUBBOCK 3WNW     N/A     54  32  43 SE3       29.93F
MORTON 1ENE      N/A     55  34  44 NE2       29.90F
ODONNELL 1N      N/A     50  33  51 S6        29.94F
PLAINS 3N        N/A     55  39  54 SW2       29.92F
RALLS 1SE        N/A     50  31  49 S5        29.94F
REESE CENTER     N/A     52  33  49 E2        29.93F
SEAGRAVES 1SW    N/A     53  38  57 S5        29.94F
SEMINOLE 2NNE    N/A     52  39  60 SE10      29.93F
SLATON 2NE       N/A     49  33  53 S5        29.94F
SNYDER 3E        N/A     51  44  76 S13       29.96F
SUNDOWN 8SW      N/A     59  35  40 S6        29.91F
TAHOKA 3NNE      N/A     51  33  50 S7        29.94F
WOLFFORTH 6SSW   N/A     53  34  49 NE1       29.93F
$$

TXZ031-032-036>038-042>044-182000-
TEXAS TECH WEST TEXAS MESONET/ROLLING PLAINS

CITY           SKY/WX    TMP DP  RH WIND       PRES   REMARKS
ASPERMONT 3NE    N/A     57  45  63 S8        29.97F
FLUVANNA 3WNW    N/A     49  37  62 S10       29.95F
GRAHAM 5SSW      N/A     51  34  52 S6        29.95F
GUTHRIE 10WSW    N/A     54  37  52 S10       29.95F
HASKELL 1NW      N/A     57  44  61 S12       29.98F
JAYTON 1SSE      N/A     55  40  58 S10       29.97F
KNOX CITY 3NW    N/A     58  44  61 SW7       29.99F
LK A HENRY 1NW   N/A     52  37  57 S7        29.96F
NORTHFIELD 1S    N/A     56  33  42 S9        29.95F
ODELL 4ENE       N/A     58  38  46 SE10      29.99F
PADUCAH 10SW     N/A     54  37  53 S9        29.96F
POST 1NE         N/A     51  33  51 SE5       29.95F
RRING SPRGS 3N   N/A     53  34  48 S5        29.94F
SEYMOUR 3NW      N/A     58  42  56 S6        30.00F
SPUR 1W          N/A     51  35  54 S6        29.95F
WEINERT 2NNE     N/A     59  44  59 S12       29.99F
WHITE RVR 6NE    N/A     51  32  47 S8        29.95F
$$

TXZ052-054-060>062-072-078-127-140-154-169-182000-
TEXAS TECH WEST TEXAS MESONET/PERMIAN BASIN/
CONCHO VALLEY/BIG COUNTRY/EDWARDS PLATEAU

CITY           SKY/WX    TMP DP  RH WIND       PRES   REMARKS
COYANOSA 2N      N/A     63  38  40 W16       29.96F
JUNCTION 1SSW    N/A     62  46  55 S9        29.99F
MERTZON 3NNE     N/A     59  47  64 S13       29.99F
SAN ANGELO 7NW   N/A     60  45  57 S9        29.98F
STRLNG CT 4WSW   N/A     57  45  64 S8        29.97F
ST LAWRNCE 5SW   N/A     55  40  58 S13       29.97F
SWEETWATR 11SW   N/A     55  47  76 S13       29.98F
WALL 1E          N/A     61  48  62 SW9       30.00F
$$

TXZ055-058-074-075-080-082-182000-
TEXAS TECH WEST TEXAS MESONET/FAR WEST/SOUTHWEST MOUNTAINS/TRANS PECOS

CITY           SKY/WX    TMP DP  RH WIND       PRES   REMARKS
PRSMN GAP BBNP   N/A     66  35  32 SW13      29.99F
GUADLPE MTN NP   N/A     41  37  84 W15       29.97F
$$




USA.gov is the U.S. government's official web portal to all federal, state and local government web resources and services.